RH
62 58 56 47 44 42 45 49 55 59 65 69 73 79 83 81 82 85 84 81 77 76 74 71 66 63 59 56 53 51 49 49 48 45 46 44 44 45 46 44 46 46 58
59 57 55 51 43 42 44 50 58 65 73 81 79 74 77 79 83 81 77 76 71 64 57 51 47 43 40 38 37 38 38 37 39 38 39 41 38 38 40 44 46 49 54
58 54 50 46 47 48 50 54 63 74 82 82 82 81 86 88 85 79 75 68 56 48 44 38 33 31 29 27 28 30 31 31 33 35 36 38 38 33 31 32 38 41 44
54 55 56 61 64 65 71 72 69 82 88 90 93 94 91 87 80 70 57 47 40 35 30 26 27 28 28 29 29 28 29 30 30 33 31 34 35 35 32 28 27 31 36
55 59 64 69 75 75 80 84 82 88 93 91 86 82 77 68 58 52 47 40 34 29 26 26 27 28 30 35 39 39 43 45 46 46 44 41 40 40 39 36 32 27 28
53 58 69 74 77 85 89 87 91 94 93 89 82 76 68 56 50 43 37 29 26 24 24 27 30 36 41 48 56 63 68 70 69 68 63 57 53 52 50 49 45 41 34
58 60 65 68 74 83 84 94 93 92 89 81 67 57 50 44 38 31 26 25 25 27 32 36 41 51 64 69 72 74 75 77 80 81 80 79 76 76 71 63 62 56 47
71 82 84 78 84 88 94 93 87 79 67 58 53 49 43 35 29 25 24 24 28 35 42 56 70 76 80 81 82 82 82 84 87 86 85 85 81 80 80 79 73 67 59
79 86 88 82 91 94 90 82 71 62 57 54 49 42 36 29 26 25 27 30 37 48 72 82 84 85 88 91 92 91 90 91 96 90 86 84 84 86 84 82 81 81 72
79 83 84 90 90 85 75 67 60 58 54 49 42 37 32 29 29 30 33 40 54 77 86 87 90 91 93 96 97 95 93 94 98 98 97 95 91 89 91 90 89 83 78
85 88 90 88 79 69 63 60 58 53 47 41 38 34 33 33 32 34 41 58 83 90 89 91 93 94 95 95 96 96 97 98 98 98 96 94 93 97 97 96 95 91 87
91 91 88 80 70 64 59 55 50 45 40 40 39 35 35 35 37 39 55 84 96 94 93 93 93 91 90 90 90 94 97 97 98 98 99 98 97 97 97 96 96 95 94
93 91 86 73 63 56 49 44 41 40 43 44 45 40 37 36 39 51 74 97 98 97 96 96 94 92 86 85 91 97 98 98 97 98 98 99 98 98 98 97 96 97 96
92 84 67 55 46 41 42 42 41 45 49 53 52 47 44 43 46 69 95 97 98 97 98 97 95 88 82 81 84 89 94 96 94 90 91 91 93 94 96 97 98 98 98
71 57 46 41 41 43 41 47 53 59 63 63 59 57 52 49 61 90 98 98 98 98 98 98 93 85 79 79 81 82 81 76 73 72 72 73 73 75 80 91 92 93 94
47 42 40 41 40 42 51 57 70 76 77 71 66 62 59 60 85 98 98 98 98 98 98 98 93 86 81 76 77 80 80 82 85 82 77 76 68 63 68 71 77 91 94
41 37 36 38 47 56 61 73 76 79 78 73 67 65 64 73 98 98 98 98 98 98 98 98 97 89 84 81 77 79 81 84 86 86 87 86 76 69 80 86 89 94 94
40 37 38 49 57 62 73 77 76 76 74 74 69 65 72 96 98 98 98 98 98 98 98 98 99 97 89 83 80 79 80 81 84 87 89 88 87 66 73 87 96 97 96
41 40 50 56 60 72 76 79 81 81 81 76 65 73 89 98 98 98 98 98 98 98 98 98 99 99 97 91 87 85 83 83 84 85 85 86 86 76 65 69 78 83 91
42 51 56 60 70 74 79 86 86 83 80 74 72 80 97 98 98 98 98 98 98 98 98 98 98 99 99 95 91 88 85 84 83 83 84 82 82 81 69 60 59 64 76
51 55 61 70 72 74 80 87 85 83 81 81 81 81 98 98 98 98 98 98 98 98 98 98 98 98 99 98 96 93 90 88 87 86 83 82 80 80 80 74 63 63 66
54 59 64 70 74 79 85 90 85 83 85 91 81 83 97 98 98 98 98 98 98 98 98 98 98 97 92 90 88 89 91 92 91 90 88 85 83 83 81 76 74 70 64
53 59 64 71 77 83 89 91 84 83 86 89 80 83 97 99 99 98 98 98 98 98 97 91 86 81 74 70 67 63 59 58 61 70 83 89 88 86 87 88 84 77 74
54 60 65 73 79 86 90 91 84 84 87 86 80 81 96 99 99 99 98 98 94 89 82 75 69 64 63 61 58 57 57 55 49 45 40 37 45 71 84 88 91 93 94
59 62 66 72 79 86 91 91 85 82 87 87 81 81 86 98 99 99 98 93 86 79 76 70 67 64 61 56 54 52 50 47 45 40 33 31 29 32 35 41 55 73 85
62 64 69 71 76 84 89 91 88 83 85 92 86 83 78 83 93 97 94 89 82 79 75 71 68 64 60 55 53 48 43 41 39 34 33 31 27 29 33 35 37 39 40